Temp
11 11 11 11 10 11 11 11 12 13 13 13 14 14 14 14 15 15 16 16 16 16 16 16 16 16 15 15 15 15 15 15 16 15 14 15 16 14 15 16 14 13 13 14 12
11 11 11 11 11 10 11 11 12 12 13 13 13 14 14 14 15 16 16 16 16 16 16 16 17 16 16 16 15 15 14 15 16 16 16 15 15 15 15 16 15 15 14 14 14
11 11 11 11 11 11 11 11 11 12 12 13 13 14 14 15 16 16 16 16 16 17 17 17 17 17 17 17 17 16 16 16 16 16 16 15 14 14 15 16 14 15 16 15 14
10 11 11 11 11 11 11 11 11 12 12 12 13 14 14 15 15 15 16 16 16 16 17 17 17 17 18 17 17 17 17 16 16 16 15 15 15 14 14 15 14 15 15 15 15
10 11 11 11 11 11 11 11 11 11 12 12 12 13 14 15 15 14 16 16 16 17 17 17 17 17 18 17 17 17 17 16 16 16 16 16 14 15 14 15 14 14 15 15 15
10 10 10 11 11 11 11 11 11 11 11 12 12 13 14 14 15 14 15 16 16 17 17 17 17 17 18 18 17 17 17 16 17 16 17 17 16 15 14 14 14 14 14 15 15
10 10 10 10 11 11 11 11 11 11 11 11 12 13 14 14 14 14 15 16 16 17 17 17 17 17 17 18 18 18 17 16 17 17 16 17 14 14 14 14 14 14 14 14 14
10 10 10 10 11 11 11 11 11 11 11 11 12 13 14 14 14 15 15 16 16 17 17 17 16 17 17 17 18 17 17 15 15 16 17 16 13 13 13 13 13 14 14 14 14
10 10 10 10 11 11 11 11 11 11 11 11 11 12 14 14 15 15 15 16 16 17 17 17 16 17 17 16 17 17 17 17 16 17 18 17 14 14 13 13 13 13 14 14 13
10 10 10 10 10 11 11 11 11 11 10 11 11 12 13 12 13 14 15 16 16 16 16 16 17 16 17 16 17 18 18 17 18 17 17 17 16 16 15 13 14 14 13 13 12
10 10 10 10 10 11 10 10 10 10 10 11 11 13 13 12 12 12 14 15 15 15 16 16 17 17 17 17 19 18 19 18 18 17 17 17 17 17 16 14 13 14 14 13 13
10 10 10 10 10 10 10 10 9 9 12 11 12 12 13 12 12 12 13 14 14 15 15 16 17 18 18 18 18 18 17 19 18 18 17 17 17 16 16 16 15 15 14 14 13
9 10 10 10 10 10 10 10 9 9 9 14 13 13 13 12 12 12 13 14 14 14 15 16 17 18 18 18 18 18 17 19 19 18 17 16 15 15 15 15 14 14 14 15 15
9 9 10 10 10 10 9 10 9 9 9 14 15 15 13 13 13 13 13 14 13 14 15 15 16 17 18 18 18 17 18 19 19 18 17 17 14 15 15 15 14 14 14 15 15
8 9 9 10 10 10 10 9 9 8 7 14 14 14 14 13 14 14 14 13 14 14 14 15 16 17 17 17 18 18 19 19 20 18 18 16 16 17 14 14 15 15 16 16 16
8 8 9 9 10 10 9 9 9 9 8 14 14 15 14 13 14 14 14 14 14 15 15 15 16 17 17 18 18 19 18 19 18 18 15 17 17 16 16 16 16 16 16 15 15
8 8 9 10 9 9 9 9 8 9 12 14 14 14 14 14 14 14 14 14 14 14 15 15 16 16 17 17 18 18 18 18 16 14 13 18 16 18 18 18 17 18 17 16 16
8 8 9 9 8 9 9 8 8 11 13 14 14 13 13 14 14 14 14 14 14 14 15 15 15 17 17 17 18 19 19 18 14 13 16 19 18 20 20 19 18 17 17 17 17
8 8 9 8 9 8 8 8 9 12 12 12 12 12 14 14 14 14 14 14 15 15 15 15 16 17 17 17 18 18 19 19 19 17 16 19 20 20 19 19 18 17 16 16 17
8 8 8 9 9 8 8 9 10 11 10 11 11 11 12 13 13 15 15 15 15 15 15 15 15 17 18 18 18 19 19 19 18 13 14 17 18 19 19 19 18 17 17 17 16
7 8 7 8 8 8 7 9 10 10 10 10 10 11 11 12 12 13 15 16 15 15 16 16 15 17 17 18 18 19 19 19 19 19 12 12 17 19 19 19 18 17 17 17 16
6 6 7 7 7 7 8 9 10 10 10 10 10 11 11 12 13 13 15 16 16 16 16 16 16 16 17 18 18 19 19 19 19 17 18 18 18 19 19 18 18 18 17 17 16
5 6 5 6 6 6 7 7 8 9 9 10 10 11 11 12 12 14 15 16 16 17 16 17 16 16 17 18 18 19 19 19 19 19 18 15 17 18 18 18 17 17 17 17 16
4 5 5 4 5 5 5 6 7 8 8 9 10 11 11 12 13 14 15 16 17 17 18 17 17 17 15 17 18 19 19 19 19 19 19 18 18 17 17 17 17 17 17 16 16
1 2 4 4 4 4 5 5 6 7 9 9 10 10 10 12 13 13 14 15 16 17 17 17 17 17 17 18 18 19 19 19 19 19 19 19 18 18 18 17 17 17 16 16 16
0 2 3 3 4 4 5 5 6 7 8 10 9 10 11 11 12 13 14 14 15 16 16 17 17 18 17 18 18 18 19 19 19 19 19 19 19 18 18 17 17 17 17 16 16
-1 0 1 3 3 4 4 5 7 7 8 9 9 9 10 11 11 12 13 14 14 14 16 16 18 18 17 18 18 18 18 19 19 18 18 18 18 19 18 17 17 16 16 16 16
Height
3177 3175 3174 3172 3170 3168 3167 3166 3164 3163 3163 3163 3162 3162 3162 3161 3161 3163 3165 3171 3171 3175 3178 3181 3183 3186 3187 3186 3187 3189 3190 3191 3188 3190 3193 3192 3191 3194 3194 3194 3194 3195 3196 3197 3198
3174 3173 3171 3169 3167 3165 3164 3163 3161 3160 3159 3159 3157 3157 3156 3156 3155 3156 3161 3162 3166 3171 3175 3178 3182 3183 3184 3188 3188 3185 3188 3189 3191 3190 3191 3193 3192 3192 3193 3194 3195 3195 3196 3197 3198
3172 3170 3168 3166 3164 3162 3161 3159 3158 3157 3156 3155 3153 3152 3151 3151 3152 3151 3154 3159 3163 3168 3172 3176 3179 3180 3181 3184 3185 3183 3184 3188 3188 3190 3191 3192 3191 3192 3193 3194 3196 3196 3197 3198 3199
3168 3167 3166 3164 3162 3160 3158 3156 3155 3154 3153 3151 3150 3148 3146 3147 3150 3148 3151 3156 3159 3164 3170 3174 3175 3175 3178 3181 3184 3182 3182 3184 3187 3191 3193 3193 3192 3190 3193 3195 3196 3196 3198 3198 3200
3165 3163 3162 3161 3159 3157 3155 3153 3152 3150 3149 3148 3146 3144 3144 3145 3146 3146 3148 3152 3155 3162 3168 3170 3172 3174 3176 3177 3178 3176 3179 3184 3187 3191 3193 3194 3194 3191 3195 3196 3196 3197 3197 3198 3200
3161 3159 3158 3157 3155 3154 3152 3150 3148 3146 3145 3144 3143 3141 3141 3143 3142 3145 3146 3150 3154 3161 3165 3168 3172 3175 3175 3174 3178 3178 3177 3184 3187 3189 3191 3191 3192 3192 3195 3196 3197 3198 3198 3199 3201
3158 3156 3154 3152 3151 3150 3148 3146 3144 3143 3142 3140 3139 3138 3138 3140 3139 3140 3143 3147 3153 3159 3163 3168 3173 3174 3175 3174 3178 3175 3181 3185 3187 3187 3188 3190 3191 3190 3194 3195 3197 3198 3199 3199 3201
3153 3152 3151 3148 3147 3146 3145 3142 3141 3139 3138 3136 3135 3134 3133 3134 3133 3137 3140 3143 3148 3155 3160 3166 3169 3170 3171 3173 3176 3175 3176 3183 3186 3185 3188 3190 3192 3192 3192 3193 3195 3197 3198 3200 3201
3148 3147 3147 3145 3142 3141 3140 3139 3137 3135 3134 3132 3131 3131 3131 3131 3134 3137 3138 3142 3146 3153 3158 3163 3165 3166 3170 3170 3172 3175 3175 3178 3184 3186 3186 3188 3189 3190 3190 3190 3192 3195 3197 3198 3199
3145 3142 3141 3141 3138 3137 3136 3134 3132 3131 3130 3128 3127 3129 3130 3130 3131 3134 3137 3140 3144 3150 3154 3158 3160 3162 3165 3167 3168 3171 3173 3176 3176 3180 3183 3185 3187 3188 3190 3190 3189 3192 3194 3194 3196
3140 3139 3137 3136 3134 3133 3134 3132 3131 3128 3124 3123 3124 3122 3123 3125 3127 3129 3133 3136 3141 3145 3147 3153 3155 3155 3161 3165 3167 3170 3172 3172 3174 3175 3178 3180 3183 3185 3188 3190 3189 3189 3189 3192 3194
3134 3133 3133 3132 3130 3130 3129 3128 3124 3120 3115 3118 3116 3116 3118 3122 3120 3122 3130 3132 3134 3137 3145 3149 3148 3154 3159 3162 3163 3166 3170 3170 3173 3174 3176 3178 3181 3183 3184 3186 3187 3188 3189 3191 3193
3128 3128 3127 3128 3127 3126 3125 3124 3123 3119 3113 3101 3107 3107 3113 3116 3116 3117 3123 3127 3130 3135 3138 3140 3146 3154 3156 3157 3160 3161 3164 3167 3168 3172 3176 3178 3182 3180 3183 3184 3186 3187 3189 3191 3191
3121 3122 3122 3124 3125 3122 3121 3121 3121 3119 3113 3097 3094 3095 3103 3110 3111 3115 3120 3125 3129 3131 3137 3140 3145 3149 3152 3153 3158 3158 3161 3163 3164 3166 3169 3173 3174 3175 3176 3178 3181 3183 3185 3187 3188
3116 3116 3117 3117 3120 3118 3119 3119 3120 3120 3118 3098 3094 3094 3101 3103 3108 3109 3117 3122 3125 3128 3133 3134 3139 3143 3146 3148 3154 3153 3156 3159 3158 3159 3162 3167 3169 3166 3174 3175 3175 3177 3178 3181 3184
3110 3110 3111 3111 3115 3114 3115 3116 3119 3122 3111 3097 3094 3092 3097 3103 3106 3112 3116 3121 3126 3129 3131 3133 3137 3140 3143 3145 3149 3150 3153 3153 3154 3156 3159 3159 3163 3161 3164 3163 3167 3172 3176 3178 3181
3106 3104 3104 3107 3110 3108 3110 3113 3117 3113 3105 3097 3093 3097 3096 3099 3105 3108 3111 3114 3117 3122 3124 3130 3131 3135 3140 3142 3143 3145 3148 3148 3150 3156 3155 3155 3159 3156 3156 3160 3163 3167 3171 3174 3176
3100 3099 3101 3101 3102 3103 3105 3108 3106 3097 3095 3096 3095 3097 3101 3101 3102 3105 3108 3110 3114 3117 3122 3123 3125 3126 3131 3135 3138 3139 3143 3144 3150 3148 3144 3148 3147 3149 3152 3154 3158 3164 3168 3171 3172
3094 3093 3095 3097 3095 3096 3099 3096 3089 3088 3092 3093 3095 3097 3097 3101 3104 3102 3102 3105 3108 3111 3116 3118 3118 3123 3126 3131 3135 3136 3133 3141 3141 3142 3143 3142 3144 3143 3144 3148 3152 3156 3160 3163 3166
3086 3088 3089 3089 3089 3089 3091 3085 3083 3087 3090 3094 3094 3096 3093 3094 3099 3100 3097 3095 3100 3105 3111 3114 3117 3116 3121 3127 3127 3127 3133 3134 3134 3140 3144 3140 3141 3138 3139 3142 3147 3152 3155 3157 3162
3080 3081 3083 3083 3082 3081 3080 3077 3079 3085 3089 3089 3091 3089 3090 3088 3093 3092 3090 3090 3092 3098 3105 3109 3112 3110 3114 3112 3117 3120 3121 3126 3131 3131 3134 3140 3136 3135 3134 3138 3141 3146 3151 3152 3155
3073 3074 3077 3077 3077 3074 3075 3075 3080 3079 3084 3082 3083 3083 3084 3083 3081 3084 3078 3081 3084 3089 3094 3100 3105 3104 3103 3108 3112 3113 3117 3120 3122 3126 3128 3130 3131 3131 3133 3136 3140 3145 3148 3151 3153
3067 3068 3069 3069 3068 3070 3072 3071 3072 3072 3075 3077 3077 3077 3080 3082 3080 3077 3075 3076 3082 3081 3085 3092 3094 3098 3100 3104 3102 3103 3109 3114 3117 3120 3123 3127 3128 3128 3130 3133 3137 3142 3145 3149 3151
3062 3062 3062 3063 3065 3065 3065 3063 3063 3065 3066 3068 3067 3071 3072 3071 3072 3067 3066 3067 3070 3072 3076 3084 3086 3088 3091 3093 3098 3099 3103 3108 3112 3114 3119 3120 3123 3125 3128 3132 3135 3138 3141 3145 3147
3056 3055 3055 3056 3060 3060 3060 3060 3059 3057 3060 3063 3060 3064 3066 3065 3063 3063 3063 3061 3063 3066 3068 3074 3078 3084 3089 3090 3094 3095 3097 3101 3104 3109 3113 3117 3118 3120 3123 3125 3128 3133 3136 3139 3142
3051 3048 3050 3051 3052 3053 3054 3056 3054 3054 3055 3054 3056 3059 3062 3059 3060 3058 3060 3059 3058 3059 3056 3064 3071 3077 3083 3086 3088 3089 3091 3094 3100 3104 3107 3111 3113 3117 3120 3124 3126 3128 3130 3132 3137
3044 3043 3043 3045 3046 3047 3049 3048 3049 3049 3048 3047 3049 3049 3050 3052 3055 3056 3057 3058 3058 3056 3055 3058 3063 3069 3075 3081 3084 3086 3087 3091 3097 3099 3105 3106 3109 3113 3114 3117 3119 3123 3126 3128 3130
Wind_Speed
12 12 13 15 15 15 14 15 17 20 23 24 24 23 23 21 21 22 21 18 25 27 22 17 15 13 14 19 12 12 5 7 17 20 25 17 15 12 8 11 9 9 10 14 21
13 13 13 14 14 15 14 14 14 15 17 20 22 21 21 20 19 18 16 22 24 27 26 21 17 13 18 17 14 17 19 12 18 15 21 19 9 11 10 12 7 5 11 13 16
13 14 14 13 14 15 14 13 13 14 15 16 18 19 19 17 15 14 17 19 23 26 27 22 19 19 22 15 13 19 23 11 21 21 25 19 14 13 10 11 3 4 8 10 12
14 14 15 14 14 14 15 15 14 13 15 16 17 17 16 13 5 8 14 19 21 24 28 24 24 25 18 13 2 11 11 22 28 22 17 15 14 19 10 6 3 4 4 8 9
16 15 15 15 15 14 15 15 15 14 14 17 17 15 14 11 5 8 15 23 24 27 31 29 28 23 17 10 20 22 25 32 29 22 16 13 19 16 17 9 7 3 6 7 8
17 17 16 16 15 15 15 16 15 17 15 15 17 15 13 5 9 9 16 24 25 29 31 31 26 17 8 7 14 30 35 33 21 18 10 8 8 11 18 13 8 5 5 9 8
17 17 18 17 16 15 15 16 16 17 16 17 16 16 13 5 12 20 18 25 28 34 33 29 23 15 6 4 13 26 30 26 21 15 13 3 15 10 15 13 9 10 9 10 9
18 17 18 18 17 15 16 17 17 17 16 17 16 15 11 12 19 16 20 30 34 38 34 29 21 16 11 5 3 34 28 34 28 18 10 4 14 12 12 18 15 16 13 13 11
19 19 18 18 18 16 15 17 18 17 15 17 15 12 6 11 13 12 21 31 32 39 35 28 24 18 16 11 11 40 35 27 29 19 12 12 13 6 5 13 17 15 13 13 12
21 19 19 18 18 16 15 17 16 16 16 19 19 11 5 1 6 13 16 31 32 35 33 31 27 21 23 14 13 28 29 26 28 27 21 17 10 10 10 10 16 15 12 7 6
20 20 18 18 18 16 13 13 14 16 23 23 18 17 17 7 11 8 20 29 31 34 35 34 33 34 27 18 17 12 26 26 31 28 25 22 15 11 11 11 13 11 8 7 5
21 19 18 18 18 16 12 11 14 18 30 28 26 25 21 14 16 20 15 31 34 36 34 30 39 39 25 21 20 18 16 27 27 28 29 24 19 13 12 11 7 4 8 8 11
22 20 18 17 18 15 12 17 16 22 30 34 27 31 27 24 22 21 20 34 36 35 33 33 45 36 28 26 21 19 19 25 33 29 26 22 22 23 18 15 16 15 10 7 9
22 21 20 16 17 14 13 15 15 17 23 23 9 27 36 27 25 20 25 33 31 35 27 25 38 39 32 29 23 24 18 25 31 31 21 32 17 31 27 27 27 24 22 17 14
23 22 19 18 15 16 15 12 10 6 5 10 11 6 33 34 15 24 17 30 29 30 29 33 36 39 32 30 20 22 14 21 15 31 41 36 11 34 35 36 35 32 27 24 21
22 22 19 20 16 18 15 14 10 5 10 10 14 12 35 29 20 21 21 31 28 22 29 31 31 31 36 26 22 19 25 18 14 32 15 33 34 21 43 37 32 32 29 30 26
19 20 19 17 12 17 15 14 10 10 6 4 9 17 32 35 27 23 29 32 39 33 32 29 31 31 30 30 24 29 27 12 4 7 8 34 28 28 24 32 31 29 24 28 28
17 20 18 16 17 21 16 18 16 20 33 8 9 5 18 34 31 31 28 35 38 38 24 34 32 36 34 38 32 25 30 17 7 3 7 18 15 29 30 25 24 30 21 19 20
18 19 17 13 19 22 22 26 31 36 25 28 26 21 9 28 23 30 34 35 38 40 41 14 30 30 35 33 30 33 35 26 23 8 4 19 30 31 34 20 28 29 27 27 25
20 20 18 18 21 21 28 38 35 34 30 20 25 14 23 16 18 30 38 41 39 35 40 34 28 33 32 30 32 34 30 27 20 7 4 7 10 20 24 22 30 30 29 27 30
21 21 15 17 17 23 34 38 36 32 28 24 25 29 30 34 31 28 45 39 39 40 34 40 32 32 27 32 33 36 33 33 28 21 7 3 12 13 20 19 28 28 28 27 25
20 16 12 14 18 22 31 33 31 32 26 25 23 31 31 29 34 34 40 46 37 39 42 43 23 41 37 24 21 31 37 29 25 13 11 14 18 11 12 18 25 26 22 20 26
18 15 13 21 23 21 21 23 22 26 23 24 25 30 26 27 35 26 21 22 36 39 46 40 41 31 26 27 27 41 30 33 25 18 23 8 4 13 19 23 20 20 19 17 13
14 9 18 26 26 23 23 25 25 26 25 24 26 25 32 28 29 29 18 13 13 35 40 44 42 42 30 27 19 43 36 31 31 32 25 21 12 23 24 23 23 26 23 22 14
15 13 17 20 25 26 28 32 26 28 26 26 25 18 20 26 27 24 16 12 11 12 50 51 42 39 31 33 32 38 44 41 35 33 33 29 21 29 29 28 27 28 24 24 21
17 21 20 25 19 23 19 22 23 21 21 24 20 18 24 19 13 17 13 5 3 0 29 57 40 41 39 32 25 25 38 37 33 33 30 27 27 23 26 28 31 31 27 21 22
20 21 22 18 21 24 14 17 18 8 12 17 20 22 20 8 12 18 18 11 9 13 6 41 50 35 38 31 18 14 11 25 22 24 27 24 34 31 31 35 35 32 24 19 22
Wind_Direction
305 306 304 305 309 308 301 302 288 277 275 277 279 281 280 275 265 249 241 228 227 228 216 195 179 187 196 188 202 223 269 265 170 154 152 158 157 113 88 103 89 91 158 146 151
300 302 307 303 304 309 300 307 301 286 277 277 280 283 283 277 266 252 229 216 213 211 213 205 191 211 210 191 223 238 239 266 183 175 174 156 180 140 130 112 107 108 151 147 139
300 298 302 306 300 304 300 299 304 297 287 282 283 285 284 277 265 246 229 209 205 202 206 191 192 211 223 224 236 256 256 267 156 154 161 162 157 158 129 132 320 152 112 135 144
306 299 299 303 302 298 302 291 299 296 295 293 292 286 281 271 267 230 207 193 194 187 193 188 198 212 204 209 52 188 177 191 157 168 166 168 172 179 170 146 126 92 145 143 163
309 305 300 300 303 298 301 292 294 293 293 299 298 283 275 267 231 205 182 187 187 179 186 191 199 207 222 286 329 150 172 165 140 142 142 133 173 203 175 187 153 164 166 172 166
306 306 304 301 299 300 297 299 285 293 288 296 301 281 270 268 222 187 181 188 179 176 186 192 190 200 237 350 121 148 143 151 159 157 137 110 125 199 200 194 171 193 186 180 191
297 300 302 300 299 299 296 297 285 290 286 293 300 280 262 254 215 202 191 185 181 176 187 193 188 204 254 93 128 160 140 151 166 174 152 219 139 185 180 186 179 191 193 188 194
297 295 295 297 295 296 297 294 294 286 282 290 293 282 263 246 226 210 206 185 179 179 187 190 197 210 234 285 353 153 151 151 164 178 174 208 157 186 196 203 202 197 196 203 206
293 295 291 291 294 293 294 294 296 284 277 279 285 288 255 234 245 207 201 184 182 181 187 192 200 207 218 249 261 164 163 176 176 208 222 199 158 182 196 209 205 197 201 216 219
292 289 291 285 288 293 295 293 295 279 269 271 269 268 193 133 228 227 191 183 184 186 189 193 204 213 216 239 238 178 181 186 197 200 210 215 198 174 158 167 180 187 192 200 228
293 293 287 285 283 291 296 294 287 265 252 255 262 242 175 192 183 211 207 186 184 191 192 192 206 216 202 208 185 209 199 202 211 198 197 215 213 205 180 160 173 150 151 203 228
288 289 289 283 279 285 295 280 270 282 276 262 255 254 192 188 213 208 214 191 187 191 186 191 206 204 195 202 218 234 254 206 218 205 206 210 211 208 217 166 160 174 176 180 225
286 287 285 284 276 274 276 271 269 270 282 296 274 252 197 205 209 192 212 190 189 189 188 195 204 201 206 205 226 238 279 221 218 207 198 201 192 196 204 214 212 229 262 235 221
282 282 283 280 273 266 260 270 272 291 303 309 295 240 195 196 212 198 201 189 191 195 192 210 201 210 214 224 228 263 255 246 242 199 180 205 201 201 205 211 215 226 232 236 253
278 277 277 276 265 256 250 257 261 301 312 312 332 262 189 191 190 193 203 190 198 204 197 205 202 208 220 225 229 248 276 248 241 205 196 195 208 216 205 213 219 222 231 233 248
273 275 270 274 268 245 245 243 238 265 254 291 294 164 178 198 176 184 201 200 197 213 216 212 208 217 220 220 237 246 269 257 182 202 191 208 211 213 207 217 223 230 234 232 240
270 272 270 263 255 238 231 226 209 212 238 282 223 192 190 196 185 194 197 198 204 217 222 217 216 215 216 229 233 251 254 233 234 184 203 215 209 227 229 232 230 229 228 228 240
264 268 265 265 245 243 214 209 219 235 238 171 120 323 217 202 197 194 205 204 209 219 222 229 235 217 218 234 240 246 243 223 200 250 262 233 224 255 257 262 234 220 228 218 232
262 265 261 257 246 236 221 215 222 236 247 250 268 295 248 217 221 206 213 222 216 216 222 227 236 221 230 228 234 243 238 238 230 239 246 249 252 269 272 228 218 213 219 219 226
265 262 272 256 251 230 225 230 236 244 249 248 275 272 284 282 307 232 215 215 225 221 219 233 248 229 225 228 236 240 224 219 217 164 202 260 267 252 211 200 199 202 214 221 223
273 267 242 246 234 227 228 235 244 250 258 266 270 266 268 285 295 300 230 223 216 220 220 225 233 225 234 235 235 210 209 214 221 215 164 224 272 257 230 217 206 195 209 223 230
271 269 239 203 235 240 241 245 253 259 259 260 263 259 272 295 300 292 247 226 218 219 219 217 229 243 236 234 245 227 219 226 213 203 225 239 255 221 197 211 202 198 198 212 225
268 259 227 213 220 244 257 260 255 262 262 263 260 248 270 287 295 308 263 229 223 219 221 214 220 234 247 245 245 212 207 213 212 209 217 184 240 204 195 190 183 186 191 195 203
273 250 201 218 231 245 261 265 253 244 257 249 264 273 290 288 290 289 307 257 229 225 225 216 216 224 227 240 251 207 209 208 212 207 221 235 218 179 184 187 189 195 201 198 202
266 242 219 209 226 240 251 261 275 283 250 251 271 288 295 283 286 287 321 299 263 248 225 216 214 219 234 246 248 230 211 217 218 222 218 227 239 202 197 201 198 186 196 208 226
254 254 247 244 230 241 240 253 261 272 284 255 277 291 265 292 264 278 292 302 328 131 211 220 216 220 227 237 228 206 214 210 225 217 214 228 234 231 222 215 208 212 210 212 230
256 258 265 249 246 248 241 241 246 276 265 250 265 278 270 269 238 253 265 269 310 346 280 216 215 211 218 228 200 182 195 218 234 251 253 231 240 239 221 217 216 210 210 235 237